[[{"header":{"parameterUnit":"m.s-1","parameterCategory":1,"la1":30.2991,"la2":30.254,"lo1":-89.0895,"lo2":-89.0444,"dy":0.0017,"dx":0.0017,"nx":28,"ny":28,"refTime":"2025-05-31T09:00:00:Z","depth":0,"parameterNumber":2,"parameterNumberName":"U-component_of_WINDS"},"data":[0,0,0,0,0,0,0,0,0,0,0,0,0,0,0,0,0,0,0,0,0,0,0,0,0,0,0,0,0,0,0,0,0,0,0,0,0,0,0,0,0,0,0,0,0,0,0,0,0,0,0,0,0,0,0,0,0,0,-1.3199,-1.32,0,-1.3256,-1.3257,-1.3257,-1.3204,-1.3202,-1.32,-1.3198,-1.3259,-1.3263,-1.3266,0,0,0,0,0,0,0,0,0,0,0,0,0,-1.3048,-1.3051,-1.3199,-1.32,-1.3201,-1.3256,-1.3257,-1.3257,-1.3204,-1.3202,-1.3199,-1.3197,-1.3258,-1.3262,-1.3266,0,0,0,0,0,0,0,0,0,0,0,0,0,-1.311,-1.3052,-1.3199,-1.3181,-1.318,-1.3256,-1.3257,-1.3258,-1.3205,-1.3202,-1.3199,-1.3196,-1.3256,-1.3262,-1.3267,-1.3365,0,0,-1.3284,-1.3286,0,0,0,0,0,0,0,0,-1.3107,-1.3116,-1.3183,-1.3182,-1.3181,-1.322,-1.3226,-1.3294,-1.3206,-1.3196,-1.3198,-1.3194,-1.3249,-1.3255,-1.3272,-1.3368,-1.337,-1.3284,-1.3287,-1.329,-1.3291,0,0,0,0,0,0,0,-1.3102,-1.3113,-1.3222,-1.3184,-1.3183,-1.3171,-1.3176,-1.3238,-1.324,-1.3196,-1.3192,-1.32,-1.3248,-1.3267,-1.3273,-1.3371,-1.3284,-1.3289,-1.3292,-1.3294,-1.355,-1.3553,0,0,0,0,0,0,-1.31,-1.311,-1.322,-1.3223,-1.3135,-1.3176,-1.3182,-1.3211,-1.3239,-1.324,-1.3202,-1.3197,-1.326,-1.3267,-1.3275,-1.3392,-1.329,-1.3295,-1.3298,-1.3546,-1.355,-1.3554,0,0,0,0,0,0,-1.3097,-1.311,-1.3218,-1.3166,-1.3178,-1.3182,-1.3215,-1.3213,-1.3233,-1.3243,-1.3244,-1.3222,-1.3257,-1.3268,-1.3343,-1.3394,-1.3297,-1.3302,-1.3542,-1.3547,-1.3552,-1.3626,0,0,0,0,0,0,-1.3092,-1.3109,-1.3146,-1.3167,-1.3181,-1.3284,-1.3218,-1.3217,-1.3242,-1.3236,-1.3262,-1.3263,-1.3256,-1.3335,-1.3348,-1.3399,-1.3306,-1.3537,-1.3544,-1.3551,-1.362,-1.3634,-1.3646,0,0,0,0,0,-1.3087,-1.3165,-1.3148,-1.3162,-1.3227,-1.3287,-1.3295,-1.3284,-1.3246,-1.3284,-1.329,-1.3262,-1.3385,-1.3343,-1.3358,-1.3411,-1.3534,-1.3542,-1.355,-1.3614,-1.3631,-1.3645,0,0,0,0,0,0,-1.3152,-1.3168,-1.3149,-1.3236,-1.326,-1.3278,-1.3325,-1.3303,-1.3339,-1.3332,-1.3317,-1.3323,-1.3403,-1.3414,-1.3367,-1.3507,-1.3454,-1.3465,-1.3497,-1.3514,-1.3526,-1.3523,-1.3311,0,0,0,0,0,-1.3176,-1.3222,-1.3234,-1.3309,-1.3322,-1.3322,-1.3347,-1.3336,-1.3361,-1.3372,-1.3384,-1.341,-1.3454,-1.3484,-1.3526,-1.362,-1.3625,-1.3664,-1.3677,-1.3687,-1.3698,-1.3749,-1.3767,-1.358,-1.358,-1.358,0,0,-1.3227,-1.3241,-1.3272,-1.3323,-1.334,-1.339,-1.3331,-1.3385,-1.3422,-1.338,-1.3452,-1.3461,-1.349,-1.3575,-1.3613,-1.3587,-1.375,-1.3698,-1.3706,-1.3711,-1.3759,-1.3777,-1.3792,-1.3586,-1.3585,-1.3584,0,0,-1.3345,-1.336,-1.3425,-1.3443,-1.347,-1.3469,-1.3484,-1.3505,-1.3509,-1.358,-1.355,-1.3594,-1.367,-1.3692,-1.3713,-1.3837,-1.3814,-1.3851,-1.392,-1.397,-1.3985,-1.3998,-1.4044,-1.406,-1.3861,-1.3861,-1.3862,0,-1.3406,-1.3477,-1.3461,-1.3518,-1.3542,-1.3504,-1.357,-1.3589,-1.3629,-1.3647,-1.3616,-1.3711,-1.3727,-1.3817,-1.3848,-1.3865,-1.3883,-1.3849,-1.3984,-1.3997,-1.4009,-1.4052,-1.4069,-1.3866,-1.3865,-1.3865,-1.3865,0,-1.3551,-1.3601,-1.365,-1.3688,-1.3717,-1.3778,-1.3772,-1.3803,-1.3789,-1.3791,-1.3864,-1.3882,-1.3927,-1.3947,-1.3934,-1.4035,-1.4018,-1.3986,-1.3932,-1.4031,-1.4072,-1.4088,-1.3872,-1.3871,-1.3869,-1.3868,0,0,-1.3714,-1.374,-1.3759,-1.3776,-1.3802,-1.3841,-1.39,-1.3942,-1.397,-1.3998,-1.4048,-1.4113,-1.4083,-1.4107,-1.4096,-1.4139,-1.4238,-1.4102,-1.4103,-1.4128,-1.4351,-1.4376,-1.4396,-1.4221,-1.4224,-1.4227,-1.4349,0,-1.3834,-1.3936,-1.3922,-1.4021,-1.4067,-1.4032,-1.4083,-1.4105,-1.4108,-1.4149,-1.4152,-1.4199,-1.4156,-1.417,-1.4211,-1.4217,-1.4283,-1.4208,-1.4269,-1.4271,-1.4265,-1.4417,-1.4444,-1.4559,-1.4365,-1.4367,-1.4369,0,-1.3988,-1.402,-1.4123,-1.4141,-1.416,-1.4207,-1.4244,-1.4283,-1.4307,-1.4306,-1.4332,-1.4313,-1.4373,-1.4317,-1.4399,-1.4349,-1.4372,-1.4379,-1.4383,-1.439,-1.4328,-1.4429,-1.4595,-1.4613,-1.4394,-1.4392,-1.439,0,-1.4098,-1.4167,-1.4237,-1.4253,-1.4276,-1.4309,-1.432,-1.4341,-1.4367,-1.44,-1.4417,-1.4456,-1.4479,-1.451,-1.4502,-1.4462,-1.4587,-1.453,-1.459,-1.459,-1.4619,-1.4618,-1.4793,-1.4632,-1.4632,-1.4631,-1.4631,0,-1.4235,-1.4299,-1.4287,-1.4331,-1.4402,-1.4386,-1.4457,-1.4464,-1.4482,-1.4527,-1.4498,-1.4541,-1.4528,-1.457,-1.4564,-1.4634,-1.4644,-1.4646,-1.4644,-1.465,-1.465,-1.4667,-1.4659,-1.4636,-1.4635,-1.4634,-1.4633,0,-1.4371,-1.4365,-1.444,-1.4454,-1.446,-1.4512,-1.4525,-1.4566,-1.4565,-1.4623,-1.4635,-1.4635,-1.4683,-1.4678,-1.4732,-1.4728,-1.4816,-1.4803,-1.4808,-1.4806,-1.4865,-1.4861,-1.5059,-1.5084,-1.4905,-1.4907,-1.4908,0,-1.4459,-1.4508,-1.4527,-1.4555,-1.4568,-1.4613,-1.4639,-1.4624,-1.4652,-1.4683,-1.4721,-1.4766,-1.4801,-1.488,-1.4886,-1.4927,-1.4916,-1.4983,-1.4922,-1.4926,-1.4919,-1.4917,-1.4922,-1.4995,-1.4997,-1.4999,-1.5,0,-1.4617,-1.4612,-1.465,-1.4687,-1.4719,-1.4747,-1.4773,-1.4798,-1.4786,-1.4819,-1.4867,-1.4895,-1.4949,-1.4995,-1.5033,-1.5045,-1.5022,-1.5019,-1.5035,-1.5042,-1.5043,-1.5045,-1.4842,-1.5015,-1.5014,-1.5013,-1.5012,-1.5011,-1.4733,-1.4775,-1.4795,-1.4838,-1.4856,-1.4881,-1.492,-1.4924,-1.4964,-1.5006,-1.4995,-1.505,-1.5072,-1.5121,-1.5137,-1.518,-1.5156,-1.5179,-1.5185,-1.5192,-1.5199,-1.5035,-1.5187,-1.5186,-1.5186,-1.5186,-1.5185,0,-1.4891,-1.4902,-1.4942,-1.4978,-1.5013,-1.4985,-1.5012,-1.5043,-1.5091,-1.5113,-1.5148,-1.5203,-1.5247,-1.5255,-1.5297,-1.533,-1.532,-1.5342,-1.534,-1.5343,-1.5218,-1.52,-1.5349,-1.5349,-1.5349,-1.5349,-1.5349,-1.5349,-1.4977,-1.5047,-1.5043,-1.5121,-1.5131,-1.5184,-1.5202,-1.5224,-1.5242,-1.5305,-1.534,-1.5345,-1.5361,-1.5404,-1.5443,-1.5444,-1.5461,-1.5488,-1.5485,-1.5368,-1.5352,-1.5337,-1.532,-1.5491,-1.5491,-1.5607,-1.5608,-1.5609]},{"header":{"parameterUnit":"m.s-1","parameterCategory":1,"la1":30.2991,"la2":30.254,"lo1":-89.0895,"lo2":-89.0444,"dy":0.0017,"dx":0.0017,"nx":28,"ny":28,"refTime":"2025-05-31T09:00:00:Z","depth":0,"parameterNumber":3,"parameterNumberName":"V-component_of_WINDS"},"data":[0,0,0,0,0,0,0,0,0,0,0,0,0,0,0,0,0,0,0,0,0,0,0,0,0,0,0,0,0,0,0,0,0,0,0,0,0,0,0,0,0,0,0,0,0,0,0,0,0,0,0,0,0,0,0,0,0,0,-5.397,-5.3971,0,-5.4031,-5.4031,-5.4032,-5.3947,-5.3944,-5.3941,-5.3938,-5.3998,-5.4002,-5.4006,0,0,0,0,0,0,0,0,0,0,0,0,0,-5.3777,-5.3781,-5.397,-5.3971,-5.3972,-5.4031,-5.4031,-5.4032,-5.3947,-5.3944,-5.394,-5.3937,-5.3996,-5.4002,-5.4007,0,0,0,0,0,0,0,0,0,0,0,0,0,-5.3852,-5.3782,-5.397,-5.3936,-5.3934,-5.403,-5.4031,-5.4032,-5.3948,-5.3944,-5.3939,-5.3935,-5.3995,-5.4001,-5.4008,-5.4139,0,0,-5.4028,-5.4031,0,0,0,0,0,0,0,0,-5.3847,-5.3859,-5.394,-5.3939,-5.3936,-5.3977,-5.3985,-5.4068,-5.3949,-5.3943,-5.3938,-5.3933,-5.3994,-5.4001,-5.4022,-5.4142,-5.4145,-5.4028,-5.4032,-5.4035,-5.4037,0,0,0,0,0,0,0,-5.3842,-5.3856,-5.3994,-5.3942,-5.3939,-5.3917,-5.3923,-5.4001,-5.3993,-5.3943,-5.3937,-5.3945,-5.3992,-5.4016,-5.4023,-5.4145,-5.4028,-5.4034,-5.4038,-5.4041,-5.4374,-5.4379,0,0,0,0,0,0,-5.3842,-5.3852,-5.3992,-5.3996,-5.388,-5.3924,-5.393,-5.3968,-5.3992,-5.3991,-5.3949,-5.3941,-5.4007,-5.4015,-5.4024,-5.4179,-5.4035,-5.4041,-5.4045,-5.4369,-5.4375,-5.4381,0,0,0,0,0,0,-5.3838,-5.3855,-5.3989,-5.3922,-5.3938,-5.3932,-5.3975,-5.3972,-5.3995,-5.3997,-5.3995,-5.3975,-5.4003,-5.4015,-5.4111,-5.418,-5.4044,-5.405,-5.4364,-5.4371,-5.4378,-5.449,0,0,0,0,0,0,-5.3833,-5.3854,-5.3905,-5.3924,-5.3942,-5.4077,-5.398,-5.3976,-5.4007,-5.3997,-5.402,-5.402,-5.4001,-5.4102,-5.4118,-5.4186,-5.4056,-5.4357,-5.4367,-5.4376,-5.448,-5.45,-5.4517,0,0,0,0,0,-5.3826,-5.3934,-5.3908,-5.3925,-5.4005,-5.4081,-5.4091,-5.4067,-5.4013,-5.4063,-5.4064,-5.4019,-5.417,-5.4112,-5.4129,-5.4201,-5.4353,-5.4364,-5.4375,-5.4472,-5.4496,-5.4517,0,0,0,0,0,0,-5.3923,-5.3936,-5.3907,-5.4025,-5.4052,-5.4066,-5.4129,-5.4094,-5.4137,-5.4126,-5.4094,-5.41,-5.4203,-5.4211,-5.4147,-5.4329,-5.4252,-5.4267,-5.432,-5.4343,-5.4361,-5.4357,-5.4061,0,0,0,0,0,-5.3958,-5.4019,-5.4027,-5.4129,-5.4145,-5.4135,-5.4167,-5.4146,-5.4173,-5.4184,-5.4192,-5.4219,-5.4272,-5.4308,-5.4357,-5.4481,-5.4484,-5.4538,-5.4557,-5.4572,-5.4586,-5.465,-5.4674,-5.4417,-5.4417,-5.4417,0,0,-5.4031,-5.4045,-5.4086,-5.4149,-5.4168,-5.4231,-5.4145,-5.4216,-5.4261,-5.4195,-5.4286,-5.4292,-5.432,-5.443,-5.4479,-5.4441,-5.4657,-5.4586,-5.4599,-5.4604,-5.4664,-5.4688,-5.471,-5.4424,-5.4423,-5.4422,0,0,-5.4195,-5.4213,-5.43,-5.4321,-5.4351,-5.4343,-5.4364,-5.4383,-5.4385,-5.4476,-5.4427,-5.448,-5.4573,-5.4595,-5.4618,-5.479,-5.4749,-5.4806,-5.4904,-5.4967,-5.4987,-5.5005,-5.5065,-5.5087,-5.482,-5.482,-5.482,0,-5.4282,-5.4376,-5.4349,-5.4423,-5.4452,-5.4395,-5.4481,-5.4502,-5.4547,-5.4567,-5.4524,-5.4638,-5.4653,-5.4766,-5.4808,-5.4829,-5.4851,-5.4804,-5.4987,-5.5004,-5.502,-5.5077,-5.51,-5.4827,-5.4826,-5.4825,-5.4825,0,-5.448,-5.4546,-5.4612,-5.4657,-5.4693,-5.4773,-5.4757,-5.4797,-5.4773,-5.477,-5.4862,-5.4878,-5.4928,-5.4954,-5.4931,-5.5064,-5.5039,-5.4992,-5.4914,-5.5052,-5.5105,-5.5127,-5.4836,-5.4834,-5.4832,-5.483,0,0,-5.4708,-5.4737,-5.4761,-5.478,-5.4808,-5.4858,-5.4935,-5.4985,-5.5019,-5.5051,-5.5113,-5.5193,-5.5149,-5.5175,-5.5154,-5.521,-5.5343,-5.5155,-5.5155,-5.5189,-5.5489,-5.5524,-5.555,-5.5316,-5.532,-5.5324,-5.5486,0,-5.4872,-5.5006,-5.4984,-5.5113,-5.5172,-5.5118,-5.5184,-5.5208,-5.5207,-5.5256,-5.5253,-5.531,-5.5248,-5.5263,-5.5316,-5.5316,-5.5403,-5.5304,-5.5373,-5.5376,-5.5368,-5.5577,-5.5615,-5.5768,-5.5507,-5.551,-5.5513,0,-5.5082,-5.5122,-5.5257,-5.5274,-5.5298,-5.5359,-5.5402,-5.545,-5.5475,-5.547,-5.5499,-5.5468,-5.5542,-5.5464,-5.5566,-5.5499,-5.5526,-5.553,-5.5535,-5.554,-5.5453,-5.5588,-5.5816,-5.5839,-5.5545,-5.5543,-5.554,0,-5.5234,-5.5321,-5.5413,-5.5431,-5.5454,-5.5497,-5.5509,-5.5529,-5.5561,-5.5598,-5.5617,-5.5663,-5.5688,-5.5723,-5.5704,-5.5649,-5.5809,-5.5729,-5.5806,-5.5807,-5.5842,-5.584,-5.6077,-5.5861,-5.586,-5.586,-5.5859,0,-5.5419,-5.5503,-5.5481,-5.5538,-5.563,-5.5603,-5.5695,-5.57,-5.5718,-5.5774,-5.5729,-5.5782,-5.5754,-5.5804,-5.5789,-5.5875,-5.5887,-5.5884,-5.5879,-5.5888,-5.5888,-5.5905,-5.5893,-5.5866,-5.5865,-5.5863,-5.5862,0,-5.5604,-5.5593,-5.5689,-5.5703,-5.5708,-5.5776,-5.5787,-5.5839,-5.5833,-5.5904,-5.5919,-5.5911,-5.5967,-5.5952,-5.6013,-5.6003,-5.6111,-5.6093,-5.6103,-5.6099,-5.6176,-5.6169,-5.6432,-5.6464,-5.6227,-5.623,-5.6232,0,-5.5723,-5.5787,-5.5807,-5.5841,-5.5856,-5.5912,-5.5943,-5.5918,-5.5953,-5.5985,-5.6033,-5.6086,-5.6127,-5.6219,-5.6218,-5.6264,-5.6246,-5.6335,-5.6253,-5.6259,-5.6247,-5.6243,-5.6249,-5.6352,-5.6354,-5.6357,-5.6358,0,-5.5935,-5.5926,-5.5973,-5.6019,-5.6058,-5.6092,-5.6123,-5.6153,-5.613,-5.617,-5.6228,-5.626,-5.6322,-5.6374,-5.6416,-5.6426,-5.6389,-5.6384,-5.6404,-5.6414,-5.6417,-5.6416,-5.6147,-5.6378,-5.6376,-5.6375,-5.6374,-5.6373,-5.609,-5.6144,-5.6166,-5.622,-5.624,-5.6269,-5.6318,-5.6319,-5.6367,-5.6416,-5.6398,-5.6464,-5.6486,-5.6538,-5.6554,-5.6604,-5.657,-5.6599,-5.6606,-5.6614,-5.6623,-5.6409,-5.6611,-5.6611,-5.661,-5.661,-5.6609,0,-5.6299,-5.631,-5.636,-5.6404,-5.6446,-5.6407,-5.6438,-5.6476,-5.6535,-5.6558,-5.6599,-5.6665,-5.6715,-5.6717,-5.6764,-5.6803,-5.6787,-5.6816,-5.6813,-5.6816,-5.6651,-5.6629,-5.6829,-5.6829,-5.6829,-5.6829,-5.6829,-5.6829,-5.6412,-5.6501,-5.6494,-5.6592,-5.6602,-5.6667,-5.6688,-5.6713,-5.6732,-5.6807,-5.6849,-5.685,-5.6865,-5.6912,-5.6956,-5.6955,-5.6974,-5.701,-5.7003,-5.6849,-5.6827,-5.6807,-5.6785,-5.7015,-5.7015,-5.7163,-5.7164,-5.7165]}]]